TimeCET,TemperatureF,Dew PointF,Humidity,Sea Level PressureIn,VisibilityMPH,Wind Direction,Wind SpeedMPH,Gust SpeedMPH,PrecipitationIn,Events,Conditions,WindDirDegrees,DateUTC
12:00 AM,44.6,44.6,100,30.30,1.9,ENE,4.6,-,N/A,,Mostly Cloudy,70,2012-11-22 23:00:00
12:30 AM,44.6,44.6,100,30.27,1.7,East,4.6,-,N/A,,Mostly Cloudy,80,2012-11-22 23:30:00
1:00 AM,44.6,44.6,100,30.27,1.6,East,5.8,-,N/A,,Mostly Cloudy,100,2012-11-23 00:00:00
1:30 AM,44.6,44.6,100,30.27,1.4,Variable,3.5,-,N/A,,Overcast,0,2012-11-23 00:30:00
2:00 AM,44.6,44.6,100,30.27,1.1,Variable,3.5,-,N/A,,Light Drizzle,0,2012-11-23 01:00:00
2:30 AM,44.6,44.6,100,30.27,0.9,Variable,3.5,-,N/A,,Light Drizzle,0,2012-11-23 01:30:00
3:00 AM,44.6,44.6,100,30.27,0.7,ESE,4.6,-,N/A,,Light Drizzle,110,2012-11-23 02:00:00
3:30 AM,44.6,44.6,100,30.27,0.7,ESE,4.6,-,N/A,,Light Drizzle,110,2012-11-23 02:30:00
4:00 AM,44.6,44.6,100,30.24,0.7,Variable,3.5,-,N/A,,Light Drizzle,0,2012-11-23 03:00:00
4:30 AM,44.6,44.6,100,30.24,0.7,Variable,3.5,-,N/A,,Light Drizzle,0,2012-11-23 03:30:00
5:00 AM,44.6,44.6,100,30.24,0.6,Variable,3.5,-,N/A,,Light Drizzle,0,2012-11-23 04:00:00
5:30 AM,44.6,44.6,100,30.24,0.6,East,4.6,-,N/A,,Light Drizzle,90,2012-11-23 04:30:00
6:00 AM,44.6,44.6,100,30.24,0.6,East,6.9,-,N/A,,Drizzle,80,2012-11-23 05:00:00
6:30 AM,44.6,44.6,100,30.24,0.6,East,5.8,-,N/A,,Drizzle,90,2012-11-23 05:30:00
7:00 AM,44.6,44.6,100,30.24,0.7,East,4.6,-,N/A,,Drizzle,80,2012-11-23 06:00:00
7:30 AM,44.6,44.6,100,30.24,1.0,Variable,3.5,-,N/A,,Overcast,0,2012-11-23 06:30:00
8:00 AM,44.6,44.6,100,30.24,1.1,East,4.6,-,N/A,,Overcast,90,2012-11-23 07:00:00
8:30 AM,44.6,44.6,100,30.24,1.0,East,4.6,-,N/A,,Overcast,90,2012-11-23 07:30:00
9:00 AM,44.6,44.6,100,30.24,1.0,East,5.8,-,N/A,,Overcast,100,2012-11-23 08:00:00
9:30 AM,44.6,44.6,100,30.24,1.1,ESE,5.8,-,N/A,,Overcast,110,2012-11-23 08:30:00
10:00 AM,44.6,44.6,100,30.27,1.4,East,4.6,-,N/A,,Overcast,100,2012-11-23 09:00:00
10:30 AM,44.6,44.6,100,30.27,1.4,ESE,4.6,-,N/A,,Overcast,110,2012-11-23 09:30:00
11:00 AM,44.6,44.6,100,30.24,1.4,Variable,3.5,-,N/A,,Overcast,0,2012-11-23 10:00:00
11:30 AM,44.6,44.6,100,30.24,1.4,SE,4.6,-,N/A,,Overcast,140,2012-11-23 10:30:00
12:00 PM,46.4,46.4,100,30.24,1.2,East,4.6,-,N/A,,Overcast,100,2012-11-23 11:00:00
12:30 PM,46.4,44.6,93,30.24,1.5,ESE,4.6,-,N/A,,Overcast,110,2012-11-23 11:30:00
1:00 PM,46.4,44.6,93,30.24,1.5,Variable,3.5,-,N/A,Rain,Light Rain,0,2012-11-23 12:00:00
1:30 PM,44.6,44.6,100,30.21,1.4,East,4.6,-,N/A,Rain,Light Rain,100,2012-11-23 12:30:00
2:00 PM,46.4,46.4,100,30.24,1.4,East,4.6,-,N/A,,Overcast,80,2012-11-23 13:00:00
2:30 PM,46.4,44.6,93,30.24,1.4,Variable,3.5,-,N/A,,Overcast,0,2012-11-23 13:30:00
3:00 PM,46.4,44.6,93,30.24,1.4,East,4.6,-,N/A,,Overcast,80,2012-11-23 14:00:00
3:30 PM,46.4,44.6,93,30.24,1.4,Variable,3.5,-,N/A,,Overcast,0,2012-11-23 14:30:00
4:00 PM,46.4,44.6,93,30.24,1.4,East,4.6,-,N/A,,Overcast,90,2012-11-23 15:00:00
4:30 PM,44.6,44.6,100,30.24,1.6,ESE,4.6,-,N/A,,Light Drizzle,110,2012-11-23 15:30:00
5:00 PM,44.6,44.6,100,30.24,-9999.0,ESE,4.6,-,N/A,,Overcast,110,2012-11-23 16:00:00
5:30 PM,44.6,44.6,100,30.24,1.9,ESE,4.6,-,N/A,,Overcast,110,2012-11-23 16:30:00
6:00 PM,44.6,44.6,100,30.24,1.9,Variable,2.3,-,N/A,,Overcast,0,2012-11-23 17:00:00
6:30 PM,44.6,44.6,100,30.24,1.9,Variable,2.3,-,N/A,,Overcast,0,2012-11-23 17:30:00
7:00 PM,44.6,44.6,100,30.24,1.2,Variable,1.2,-,N/A,,Mostly Cloudy,0,2012-11-23 18:00:00
7:30 PM,44.6,44.6,100,30.24,1.2,Variable,1.2,-,N/A,,Overcast,0,2012-11-23 18:30:00
8:00 PM,44.6,44.6,100,30.24,1.2,Variable,2.3,-,N/A,,Overcast,0,2012-11-23 19:00:00
8:30 PM,44.6,44.6,100,30.27,1.2,Calm,Calm,-,N/A,,Overcast,0,2012-11-23 19:30:00
9:00 PM,44.6,44.6,100,30.27,1.2,Calm,Calm,-,N/A,,Overcast,0,2012-11-23 20:00:00
9:30 PM,44.6,44.6,100,30.27,0.9,Calm,Calm,-,N/A,,Overcast,0,2012-11-23 20:30:00
10:00 PM,44.6,44.6,100,30.27,0.7,Variable,2.3,-,N/A,,Overcast,0,2012-11-23 21:00:00
10:30 PM,44.6,44.6,100,30.27,0.7,Variable,2.3,-,N/A,,Overcast,0,2012-11-23 21:30:00
11:00 PM,44.6,44.6,100,30.27,0.6,Variable,1.2,-,N/A,Fog,Overcast,0,2012-11-23 22:00:00
11:30 PM,44.6,44.6,100,30.27,0.4,Variable,2.3,-,N/A,Fog,Fog,0,2012-11-23 22:30:00